Location: Al Mulaqqa?ah
(24.1833°N, 32.8833°E)
Time: 21:41:15
(UTC+00:00)

USA 238 - Pass Details

Date: 26 September 2021
Orbit: 980 x 1232 km, 63.4° (Epoch: 11 October)

Event Time Altitude Azimuth Distance (km) Brightness Sun altitude
Rises 16:50:57 0° 199° (SSW) 3,665 6.7 -16.9°
Reaches altitude 10° 16:53:30 10° 196° (SSW) 2,720 6.0 -17.4°
Maximum altitude 16:59:48 69° 114° (ESE) 1,054 3.4 -18.9°
Drops below altitude 10° 17:06:18 10° 33° (NNE) 2,807 5.7 -20.3°
Sets 17:08:58 0° 31° (NNE) 3,791 6.4 -20.9°
